Location: Newark
(35.6799°N, 139.7636°E)
Time: 17:05:29
(UTC+00:00)

Vanguard 3 - Pass Details

Date: 17 December 2019
Orbit: 507 x 3263 km, 33.4° (Epoch: 24 January)

Event Time Altitude Azimuth Distance (km) Brightness Sun altitude
Exits shadow 18:45:55 15° 139° (SE) 1,733 9.2 -35.4°
Drops below altitude 10° 18:48:39 10° 106° (ESE) 2,312 10.2 -34.8°
Sets 18:52:44 0° 86° (E) 3,702 11.6 -34.0°
